Location: Alafon
(8.4500°N, 4.2333°E)
Time: 13:53:17
(UTC+00:00)

Transit 2A Rocket - Visible Passes

Search period start: 04 August 2021 00:00
Search period end: 14 August 2021 00:00
Orbit: 589 x 913 km, 66.7° (Epoch: 03 August)

Date Brightness Start Highest point End Pass type
(mag) Time Alt. Az. Time Alt. Az. Time Alt. Az.
11 Aug 7.9 20:42:33 10° N 20:42:35 10° N 20:42:35 10° N visible
12 Aug 7.6 20:01:20 10° NNE 20:01:25 10° NNE 20:01:25 10° NNE visible
13 Aug 7.7 20:59:10 10° NNW 21:00:17 16° NNW 21:00:17 16° NNW visible
